TimeMST,TemperatureF,Dew PointF,Humidity,Sea Level PressureIn,VisibilityMPH,Wind Direction,Wind SpeedMPH,Gust SpeedMPH,PrecipitationIn,Events,Conditions,WindDirDegrees,DateUTC
12:53 AM,25.0,17.1,72,29.80,10.0,West,9.2,-,N/A,,Clear,270,2014-02-17 07:53:00
1:53 AM,24.1,17.1,75,29.80,10.0,NW,6.9,-,N/A,,Clear,310,2014-02-17 08:53:00
2:53 AM,25.0,18.0,75,29.79,10.0,West,6.9,-,N/A,,Clear,270,2014-02-17 09:53:00
3:53 AM,24.1,17.1,75,29.78,10.0,West,9.2,-,N/A,,Clear,270,2014-02-17 10:53:00
4:53 AM,23.0,16.0,74,29.78,10.0,WSW,6.9,-,N/A,,Clear,240,2014-02-17 11:53:00
5:53 AM,25.0,18.0,75,29.77,10.0,SSW,8.1,-,N/A,,Partly Cloudy,210,2014-02-17 12:53:00
6:53 AM,27.0,17.1,66,29.74,10.0,SSW,6.9,-,N/A,,Clear,200,2014-02-17 13:53:00
7:53 AM,30.0,18.0,61,29.71,10.0,South,10.4,-,N/A,,Scattered Clouds,190,2014-02-17 14:53:00
8:53 AM,32.0,18.0,56,29.70,10.0,South,11.5,-,N/A,,Clear,180,2014-02-17 15:53:00
9:53 AM,36.0,19.0,50,29.66,10.0,South,13.8,-,N/A,,Clear,190,2014-02-17 16:53:00
10:53 AM,39.9,19.9,45,29.62,10.0,SSW,12.7,-,N/A,,Clear,200,2014-02-17 17:53:00
11:53 AM,43.0,21.0,42,29.60,10.0,SSW,10.4,-,N/A,,Clear,210,2014-02-17 18:53:00
12:53 PM,46.9,21.0,36,29.56,10.0,SW,12.7,-,N/A,,Clear,230,2014-02-17 19:53:00
1:53 PM,48.9,23.0,36,29.53,10.0,SW,12.7,-,N/A,,Clear,230,2014-02-17 20:53:00
2:53 PM,48.9,24.1,38,29.50,10.0,WSW,10.4,-,N/A,,Clear,240,2014-02-17 21:53:00
3:53 PM,46.0,27.0,47,29.50,10.0,West,10.4,-,N/A,,Clear,270,2014-02-17 22:53:00
4:53 PM,42.1,28.0,58,29.52,10.0,NW,8.1,-,N/A,,Clear,310,2014-02-17 23:53:00
5:53 PM,41.0,27.0,57,29.52,10.0,West,4.6,-,N/A,,Scattered Clouds,260,2014-02-18 00:53:00
6:53 PM,39.0,28.0,65,29.52,10.0,NNE,5.8,-,N/A,,Overcast,20,2014-02-18 01:53:00
7:53 PM,41.0,28.0,60,29.50,10.0,West,6.9,-,N/A,,Overcast,260,2014-02-18 02:53:00
8:53 PM,37.0,28.9,73,29.52,10.0,WSW,8.1,-,N/A,,Overcast,250,2014-02-18 03:53:00
9:53 PM,37.9,30.0,73,29.53,10.0,North,9.2,-,0.00,,Overcast,350,2014-02-18 04:53:00
10:53 PM,35.1,32.0,89,29.54,10.0,WNW,4.6,-,N/A,,Scattered Clouds,290,2014-02-18 05:53:00
11:53 PM,33.1,32.0,96,29.54,10.0,SSW,6.9,-,N/A,,Mostly Cloudy,210,2014-02-18 06:53:00